When you browse on this site, cookies collect data to enhance your experience and personalize the content and advertising you see.
Visit our Privacy Policy to learn more. By continuing to use the site, you agree to this use of cookies and data.

Hourly Weather Northampton

Today, 4 August, Tuesday

Time Temperature Precipitation Wind Pressure Humidity
00:00 +12°C° 0 mm 1 mps 754 mmHg 76%
01:00 +12°C° 0 mm 1 mps 754 mmHg 77%
02:00 +11°C° 0 mm 1 mps 754 mmHg 78%
03:00 +10°C° 0 mm 0 mps 754 mmHg 79%
04:00 +12°C° 0 mm 1 mps 754 mmHg 78%
05:00 +12°C° 0 mm 1 mps 753 mmHg 77%
06:00 +13°C° 0 mm 1 mps 753 mmHg 75%
07:00 +14°C° 0 mm 2 mps 753 mmHg 73%
08:00 +15°C° 0 mm 2 mps 754 mmHg 71%
09:00 +16°C° 0 mm 3 mps 754 mmHg 68%
10:00 +15°C° 0 mm 4 mps 753 mmHg 69%
11:00 +14°C° 0 mm 4 mps 753 mmHg 70%
12:00 +14°C° 0 mm 5 mps 752 mmHg 71%
13:00 +16°C° 0 mm 5 mps 752 mmHg 67%
14:00 +17°C° 0 mm 6 mps 752 mmHg 63%
15:00 +20°C° 0 mm 7 mps 751 mmHg 58%
16:00 +20°C° 0 mm 7 mps 751 mmHg 63%
17:00 +18°C° 0 mm 7 mps 751 mmHg 67%
18:00 +18°C° 0 mm 7 mps 750 mmHg 72%
19:00 +17°C° 0 mm 7 mps 750 mmHg 75%
20:00 +16°C° 0 mm 6 mps 750 mmHg 79%
21:00 +15°C° 0 mm 6 mps 751 mmHg 83%
22:00 +15°C° 0 mm 6 mps 750 mmHg 85%
23:00 +15°C° 0 mm 6 mps 750 mmHg 86%

Tomorrow, 5 August, Wednesday

Time Temperature Precipitation Wind Pressure Humidity
00:00 +14°C° 0 mm 6 mps 750 mmHg 88%
01:00 +15°C° 0 mm 6 mps 750 mmHg 88%
02:00 +15°C° 0 mm 6 mps 750 mmHg 88%
03:00 +15°C° 0 mm 6 mps 750 mmHg 87%
04:00 +16°C° 0 mm 6 mps 750 mmHg 87%
05:00 +16°C° 0 mm 6 mps 749 mmHg 87%
06:00 +16°C° 0 mm 6 mps 749 mmHg 86%
07:00 +17°C° 0 mm 6 mps 750 mmHg 83%
08:00 +18°C° 0 mm 7 mps 750 mmHg 79%
09:00 +20°C° 0 mm 7 mps 750 mmHg 75%
10:00 +21°C° 0 mm 7 mps 750 mmHg 73%
11:00 +21°C° 0 mm 7 mps 750 mmHg 70%
12:00 +22°C° 0 mm 8 mps 750 mmHg 67%
13:00 +22°C° 0 mm 7 mps 750 mmHg 66%
14:00 +23°C° 0 mm 7 mps 750 mmHg 65%
15:00 +23°C° 0 mm 7 mps 750 mmHg 63%
16:00 +23°C° 0 mm 6 mps 750 mmHg 66%
17:00 +22°C° 0 mm 6 mps 750 mmHg 68%
18:00 +22°C° 0 mm 5 mps 750 mmHg 70%
19:00 +21°C° 0.4 mm 5 mps 750 mmHg 75%
20:00 +20°C° 0.4 mm 5 mps 750 mmHg 80%
21:00 +19°C° 0.4 mm 4 mps 751 mmHg 84%
22:00 +18°C° 0 mm 4 mps 751 mmHg 87%
23:00 +17°C° 0 mm 5 mps 751 mmHg 89%

Day after tomorrow, 6 August, Thursday

Time Temperature Precipitation Wind Pressure Humidity
00:00 +16°C° 0 mm 5 mps 751 mmHg 92%
01:00 +18°C° 0 mm 4 mps 751 mmHg 92%
02:00 +18°C° 0 mm 4 mps 751 mmHg 92%
03:00 +18°C° 0 mm 4 mps 752 mmHg 92%
04:00 +18°C° 0 mm 4 mps 752 mmHg 93%
05:00 +18°C° 0 mm 4 mps 752 mmHg 93%
06:00 +18°C° 0 mm 3 mps 752 mmHg 93%
07:00 +19°C° 0 mm 3 mps 752 mmHg 90%
08:00 +19°C° 0 mm 3 mps 753 mmHg 88%
09:00 +20°C° 0 mm 3 mps 753 mmHg 85%
10:00 +21°C° 0 mm 4 mps 753 mmHg 77%
11:00 +23°C° 0 mm 4 mps 753 mmHg 68%
12:00 +26°C° 0 mm 4 mps 753 mmHg 60%
13:00 +27°C° 0 mm 4 mps 753 mmHg 57%
14:00 +27°C° 0 mm 4 mps 753 mmHg 55%
15:00 +28°C° 0 mm 4 mps 753 mmHg 53%
16:00 +27°C° 0 mm 3 mps 753 mmHg 57%
17:00 +27°C° 0 mm 3 mps 753 mmHg 60%
18:00 +26°C° 0 mm 2 mps 753 mmHg 64%
19:00 +24°C° 0 mm 2 mps 753 mmHg 68%
20:00 +23°C° 0 mm 2 mps 753 mmHg 73%
21:00 +20°C° 0 mm 2 mps 754 mmHg 78%
22:00 +20°C° 0 mm 2 mps 754 mmHg 81%
23:00 +19°C° 0 mm 2 mps 754 mmHg 84%

7 August, Friday

Time Temperature Precipitation Wind Pressure Humidity
00:00 +18°C° 0 mm 2 mps 754 mmHg 87%
01:00 +18°C° 0 mm 2 mps 754 mmHg 89%
02:00 +19°C° 0 mm 1 mps 754 mmHg 90%
03:00 +19°C° 0 mm 1 mps 754 mmHg 92%
04:00 +19°C° 0 mm 1 mps 754 mmHg 90%
05:00 +19°C° 0 mm 1 mps 754 mmHg 89%
06:00 +20°C° 0 mm 1 mps 754 mmHg 88%
07:00 +22°C° 0 mm 1 mps 755 mmHg 80%
08:00 +23°C° 0 mm 1 mps 755 mmHg 72%
09:00 +25°C° 0 mm 2 mps 755 mmHg 63%
10:00 +27°C° 0 mm 2 mps 755 mmHg 57%
11:00 +28°C° 0 mm 2 mps 754 mmHg 51%
12:00 +29°C° 0 mm 2 mps 754 mmHg 45%
13:00 +30°C° 0 mm 3 mps 754 mmHg 44%
14:00 +30°C° 0 mm 3 mps 754 mmHg 42%
15:00 +31°C° 0 mm 3 mps 754 mmHg 41%
16:00 +30°C° 0 mm 3 mps 754 mmHg 45%
17:00 +30°C° 0 mm 2 mps 754 mmHg 49%
18:00 +29°C° 0 mm 2 mps 754 mmHg 53%
19:00 +27°C° 0 mm 2 mps 754 mmHg 60%
20:00 +25°C° 0 mm 2 mps 754 mmHg 67%
21:00 +23°C° 0 mm 2 mps 755 mmHg 74%
22:00 +21°C° 0 mm 2 mps 755 mmHg 77%
23:00 +21°C° 0 mm 2 mps 755 mmHg 79%

8 August, Saturday

Time Temperature Precipitation Wind Pressure Humidity
00:00 +20°C° 0 mm 2 mps 755 mmHg 81%
01:00 +19°C° 0 mm 2 mps 755 mmHg 80%
02:00 +19°C° 0 mm 2 mps 755 mmHg 80%
03:00 +18°C° 0 mm 3 mps 755 mmHg 79%
04:00 +18°C° 0 mm 2 mps 756 mmHg 79%
05:00 +18°C° 0 mm 2 mps 756 mmHg 80%
06:00 +18°C° 0 mm 2 mps 756 mmHg 81%
07:00 +20°C° 0 mm 3 mps 756 mmHg 76%
08:00 +21°C° 0 mm 3 mps 757 mmHg 71%
09:00 +22°C° 0 mm 4 mps 757 mmHg 66%
10:00 +23°C° 0 mm 4 mps 757 mmHg 63%
11:00 +25°C° 0 mm 4 mps 757 mmHg 60%
12:00 +26°C° 0 mm 3 mps 757 mmHg 58%
13:00 +26°C° 0 mm 3 mps 758 mmHg 57%
14:00 +26°C° 0 mm 3 mps 758 mmHg 56%
15:00 +26°C° 0 mm 3 mps 758 mmHg 55%
16:00 +25°C° 0 mm 3 mps 758 mmHg 59%
17:00 +23°C° 0 mm 4 mps 758 mmHg 62%
18:00 +22°C° 0 mm 5 mps 758 mmHg 66%
19:00 +20°C° 0 mm 5 mps 759 mmHg 71%
20:00 +17°C° 0 mm 5 mps 759 mmHg 77%
21:00 +16°C° 0 mm 5 mps 759 mmHg 83%
22:00 +15°C° 0 mm 5 mps 759 mmHg 84%
23:00 +14°C° 0 mm 5 mps 760 mmHg 86%

9 August, Sunday

Time Temperature Precipitation Wind Pressure Humidity
00:00 +14°C° 0 mm 5 mps 760 mmHg 88%
01:00 +14°C° 0 mm 5 mps 760 mmHg 88%
02:00 +14°C° 0 mm 5 mps 759 mmHg 88%
03:00 +13°C° 0 mm 5 mps 759 mmHg 87%
04:00 +13°C° 0 mm 5 mps 759 mmHg 87%
05:00 +14°C° 0 mm 5 mps 760 mmHg 86%
06:00 +14°C° 0 mm 5 mps 760 mmHg 85%
07:00 +14°C° 0 mm 6 mps 760 mmHg 82%
08:00 +15°C° 0 mm 6 mps 760 mmHg 79%
09:00 +16°C° 0 mm 6 mps 760 mmHg 77%
10:00 +17°C° 0 mm 6 mps 760 mmHg 72%
11:00 +19°C° 0 mm 6 mps 759 mmHg 68%
12:00 +20°C° 0 mm 6 mps 759 mmHg 64%
13:00 +20°C° 0 mm 6 mps 759 mmHg 63%
14:00 +21°C° 0 mm 6 mps 759 mmHg 61%
15:00 +21°C° 0 mm 6 mps 758 mmHg 60%
16:00 +20°C° 0 mm 6 mps 758 mmHg 62%
17:00 +19°C° 0 mm 6 mps 758 mmHg 65%
18:00 +17°C° 0 mm 6 mps 758 mmHg 67%
19:00 +16°C° 0 mm 6 mps 758 mmHg 71%
20:00 +15°C° 0 mm 6 mps 758 mmHg 74%
21:00 +14°C° 0 mm 6 mps 758 mmHg 78%
22:00 +14°C° 0 mm 6 mps 758 mmHg 80%
23:00 +13°C° 0 mm 6 mps 758 mmHg 82%
Show more